#timestamp,LO_Frequency,Hit,StdDev 
1617978195.1,286047009.6,P
1617978196.0,286047009.6,P
1617978215.8,286047012.0,P
1617978235.7,286047011.6,Y
1617978255.5,286047000.6,P
1617978275.3,286047000.9,N
1617978295.2,286047000.9,N
1617978315.0,286047000.1,N
1617978315.9,286047000.1,N
1617978335.8,286047002.7,N
1617978355.6,286047000.0,N
1617978375.4,286047000.3,N
1617978395.3,286047000.2,N
1617978415.1,286047000.6,N
1617978435.8,286046999.9,N
1617978455.7,286047000.0,N
1617978475.5,286047002.1,N
1617978495.3,286047000.1,N
1617978515.2,286047002.8,N
1617978535.0,286046999.7,N
1617978535.9,286046999.7,N
1617978555.8,286046999.9,N
1617978575.6,286047002.3,N
1617978595.4,286047001.8,N
1617978615.3,286047004.1,N
1617978635.1,286047003.9,N
1617978655.8,286047001.7,N
1617978675.7,286047003.9,N
1617978695.5,286047005.9,N
1617978715.4,286047001.4,N
1617978735.2,286047001.5,N
1617978755.0,286047001.7,N
1617978755.9,286047001.7,N
1617978775.8,286047001.4,N
1617978795.6,286047001.6,N
1617978815.5,286047004.4,N
1617978835.3,286047003.9,N
1617978855.1,286047001.7,N
1617978875.9,286047003.9,N
1617978895.7,286047003.2,N
1617978915.5,286047005.0,Y
1617978935.4,286047003.9,P
1617978955.2,286047003.9,P
1617978975.1,286047001.4,N
1617978976.0,286047001.4,N
1617978995.8,286047002.3,N
1617979015.6,286047002.2,N
1617979035.5,286047002.8,N
1617979055.3,286047004.0,Y
1617979075.2,286046998.9,P
1617979095.9,286046998.6,N
1617979115.7,286047000.3,N
1617979135.6,286047000.8,N
1617979155.4,286047000.3,N
1617979175.2,286047000.1,N
1617979195.1,286047002.1,N
1617979196.0,286047002.1,N
1617979215.8,286047002.0,N
1617979235.7,286047001.5,N
1617979255.5,286047004.4,Y
1617979275.3,286046999.8,P
1617979295.2,286047000.7,N
1617979315.0,286047002.6,P
1617979315.9,286047002.6,N
1617979335.8,286047002.2,N
1617979355.6,286047002.1,N
1617979375.4,286047001.5,N
1617979395.3,286047001.3,N
1617979415.1,286047001.9,N
1617979435.8,286047002.6,N
1617979455.7,286047004.0,Y
1617979475.5,286047002.8,P
1617979495.4,286047001.4,N
1617979515.2,286047001.4,N
1617979535.0,286047000.0,N
1617979535.9,286047000.0,N
1617979555.8,286047002.6,N
1617979575.6,286047003.8,Y
1617979595.4,286047000.3,P
1617979615.3,286047002.6,P
1617979635.1,286047002.4,N
1617979655.9,286047002.5,N
1617979675.7,286047004.4,Y
1617979695.5,286046999.9,P
1617979715.4,286047000.1,N
1617979735.2,286046998.1,N
1617979755.1,286046998.1,N
1617979756.0,286046998.1,N
1617979775.8,286047000.6,N
1617979795.6,286047000.4,N
1617979815.5,286047002.2,N
1617979835.3,286047004.2,N
1617979855.1,286047001.9,N
1617979875.9,286047004.4,N
1617979895.7,286047004.0,N
1617979915.6,286047003.8,N
1617979935.4,286047002.9,N
1617979955.2,286047001.5,N
1617979975.1,286047004.3,N
1617979976.0,286047004.3,N
1617979995.8,286047005.8,N
1617980015.6,286047005.3,N
1617980035.5,286047005.9,N
1617980055.3,286047004.5,N
1617980075.1,286047005.8,N
1617980095.9,286047004.8,N
1617980115.7,286047006.4,N
1617980135.6,286047007.0,N
1617980155.4,286047007.4,N
1617980175.2,286047006.4,N
1617980195.1,286047008.7,Y
1617980196.0,286047008.7,P
1617980215.8,286047003.1,N
1617980235.7,286047005.7,N
1617980255.5,286047005.1,N
1617980275.3,286047003.0,N
1617980295.2,286047005.3,N
1617980315.9,286047005.3,N
1617980335.7,286047005.1,N
1617980355.6,286047007.5,Y
1617980375.4,286047004.4,P
1617980395.3,286047001.5,P
